Location: Easthampton
(42.2676°N, 72.6690°W)
Time: 05:42:27
(UTC+00:00)

N. Korean satellite - Pass Details

Date: 11 December 2022
Orbit: 407 x 444 km, 97.3° (Epoch: 28 January)

Event Time Altitude Azimuth Distance (km) Brightness Sun altitude
Rises 21:52:56 0° 189° (S) 2,464 10.7 -6.5°
Reaches altitude 10° 21:55:07 10° 201° (SSW) 1,603 9.9 -6.8°
Maximum altitude 21:58:10 29° 263° (W) 873 8.8 -7.3°
Drops below altitude 10° 22:01:17 10° 326° (NW) 1,627 9.4 -7.9°
Sets 22:03:31 0° 338° (NNW) 2,510 10.2 -8.2°
